BOX742 OOMS-VHHH

Flight info

Callsign BOX742
Flight time 6h 6m
Altitude 33000
Route SODEB DCT VAXIM L301 RASKI L639 BPL/N0490F350 A791 CEA B465 CTG A599 LINSO/K0893S1070 A599 GULOT W146 XSJ W148 LXI A599 POU R473 VIBOS DCT SIERA
Aircraft B77L/H-SDE1E2E3FGHIJ2J3J4J5M1RWXYZ/LB1D1

Departure

Time 2026-05-05 11:47
Airport Muscat International Airport (OOMS)

Arrival

Time 2026-05-05 17:54
Airport Hong Kong International Airport (VHHH)
Time Latitude Longitude Altitude Speed Heading
2026-05-05 11:10 23.59845 58.30054 49 ft 0 kts 355°
2026-05-05 11:33 23.59841 58.30055 49 ft 3 kts 355°
2026-05-05 11:33 23.59815 58.30057 47 ft 4 kts 355°
2026-05-05 11:33 23.59787 58.30060 43 ft 4 kts 355°
2026-05-05 11:33 23.59765 58.30062 44 ft 4 kts 342°
2026-05-05 11:34 23.59746 58.30074 44 ft 4 kts 304°
2026-05-05 11:34 23.59737 58.30097 42 ft 4 kts 271°
2026-05-05 11:34 23.59739 58.30126 42 ft 4 kts 262°
2026-05-05 11:34 23.59741 58.30145 44 ft 0 kts 265°
2026-05-05 11:37 23.59741 58.30144 44 ft 0 kts 265°
2026-05-05 11:37 23.59741 58.30136 44 ft 1 kts 265°
2026-05-05 11:37 23.59740 58.30124 42 ft 2 kts 264°
2026-05-05 11:37 23.59738 58.30101 49 ft 4 kts 264°
2026-05-05 11:38 23.59734 58.30060 49 ft 7 kts 264°
2026-05-05 11:38 23.59729 58.30000 49 ft 9 kts 265°
2026-05-05 11:38 23.59724 58.29926 49 ft 11 kts 265°
2026-05-05 11:38 23.59717 58.29837 49 ft 13 kts 265°
2026-05-05 11:39 23.59708 58.29724 49 ft 17 kts 265°
2026-05-05 11:39 23.59697 58.29591 49 ft 18 kts 265°
2026-05-05 11:39 23.59687 58.29458 49 ft 18 kts 265°
2026-05-05 11:39 23.59676 58.29324 49 ft 18 kts 265°
2026-05-05 11:40 23.59665 58.29189 49 ft 18 kts 265°
2026-05-05 11:40 23.59654 58.29055 49 ft 18 kts 265°
2026-05-05 11:40 23.59644 58.28921 49 ft 18 kts 265°
2026-05-05 11:40 23.59633 58.28786 49 ft 18 kts 265°
2026-05-05 11:41 23.59626 58.28695 49 ft 18 kts 265°
2026-05-05 11:41 23.59615 58.28561 49 ft 18 kts 265°
2026-05-05 11:41 23.59604 58.28427 49 ft 18 kts 265°
2026-05-05 11:41 23.59593 58.28292 49 ft 18 kts 265°
2026-05-05 11:42 23.59583 58.28160 49 ft 18 kts 265°
2026-05-05 11:42 23.59571 58.28025 49 ft 18 kts 264°
2026-05-05 11:42 23.59560 58.27891 49 ft 18 kts 265°
2026-05-05 11:42 23.59549 58.27757 49 ft 18 kts 265°
2026-05-05 11:43 23.59538 58.27621 47 ft 19 kts 265°
2026-05-05 11:43 23.59525 58.27463 49 ft 22 kts 265°
2026-05-05 11:43 23.59512 58.27299 49 ft 22 kts 265°
2026-05-05 11:43 23.59498 58.27135 49 ft 22 kts 265°
2026-05-05 11:44 23.59485 58.26971 49 ft 22 kts 265°
2026-05-05 11:44 23.59471 58.26809 49 ft 20 kts 265°
2026-05-05 11:44 23.59464 58.26717 49 ft 8 kts 260°
2026-05-05 11:44 23.59426 58.26680 49 ft 8 kts 192°
2026-05-05 11:45 23.59370 58.26681 48 ft 8 kts 176°
2026-05-05 11:45 23.59315 58.26685 48 ft 8 kts 176°
2026-05-05 11:45 23.59260 58.26689 49 ft 8 kts 176°
2026-05-05 11:45 23.59205 58.26694 47 ft 8 kts 172°
2026-05-05 11:46 23.59171 58.26714 49 ft 4 kts 121°
2026-05-05 11:46 23.59173 58.26746 49 ft 4 kts 85°
2026-05-05 11:46 23.59181 58.26850 48 ft 27 kts 85°
2026-05-05 11:46 23.59213 58.27234 49 ft 81 kts 85°
2026-05-05 11:47 23.59280 58.28055 49 ft 135 kts 84°
2026-05-05 11:47 23.59376 58.29236 46 ft 176 kts 84°
2026-05-05 11:47 23.59472 58.30601 400 ft 178 kts 84°
2026-05-05 11:47 23.59549 58.31962 834 ft 182 kts 83°
2026-05-05 11:48 23.59730 58.34830 1402 ft 204 kts 82°
2026-05-05 11:48 23.59986 58.36423 1600 ft 225 kts 79°
2026-05-05 11:48 23.60307 58.38149 1938 ft 238 kts 80°
2026-05-05 11:49 23.60643 58.39962 2341 ft 250 kts 79°
2026-05-05 11:49 23.60987 58.41841 2874 ft 256 kts 79°
2026-05-05 11:49 23.61334 58.43760 3487 ft 258 kts 80°
2026-05-05 11:49 23.61684 58.45715 3962 ft 267 kts 80°
2026-05-05 11:50 23.62038 58.47706 4603 ft 269 kts 81°
2026-05-05 11:50 23.62395 58.49723 5167 ft 274 kts 81°
2026-05-05 11:50 23.62756 58.51781 5713 ft 279 kts 81°
2026-05-05 11:50 23.63124 58.53885 6206 ft 286 kts 82°
2026-05-05 11:51 23.63491 58.55998 6758 ft 289 kts 82°
2026-05-05 11:51 23.63872 58.58190 7324 ft 291 kts 82°
2026-05-05 11:51 23.64251 58.60366 7935 ft 294 kts 82°
2026-05-05 11:51 23.64634 58.62572 8511 ft 297 kts 81°
2026-05-05 11:52 23.65014 58.64772 9079 ft 301 kts 81°
2026-05-05 11:52 23.65403 58.67028 9654 ft 305 kts 81°
2026-05-05 11:52 23.65797 58.69316 10106 ft 313 kts 81°
2026-05-05 11:52 23.66210 58.71728 10243 ft 334 kts 81°
2026-05-05 11:53 23.66650 58.74288 10399 ft 354 kts 81°
2026-05-05 11:53 23.67116 58.77006 10549 ft 374 kts 81°
2026-05-05 11:53 23.67605 58.79851 10928 ft 386 kts 81°
2026-05-05 11:53 23.68105 58.82755 11505 ft 393 kts 80°
2026-05-05 11:54 23.68612 58.85703 12225 ft 396 kts 80°
2026-05-05 11:54 23.69120 58.88654 13058 ft 396 kts 79°
2026-05-05 11:54 23.69629 58.91612 13797 ft 398 kts 79°
2026-05-05 11:54 23.70143 58.94602 14363 ft 404 kts 78°
2026-05-05 11:55 23.70662 58.97634 14898 ft 410 kts 78°
2026-05-05 11:55 23.71188 59.00713 15496 ft 414 kts 78°
2026-05-05 11:55 23.71716 59.03815 16099 ft 418 kts 78°
2026-05-05 11:55 23.72249 59.06950 16700 ft 422 kts 78°
2026-05-05 11:56 23.72785 59.10108 17283 ft 426 kts 78°
2026-05-05 11:56 23.73327 59.13306 17861 ft 430 kts 77°
2026-05-05 11:56 23.73873 59.16534 18371 ft 435 kts 77°
2026-05-05 11:56 23.74425 59.19796 18864 ft 439 kts 77°
2026-05-05 11:57 23.74980 59.23081 19345 ft 443 kts 77°
2026-05-05 11:57 23.75541 59.26405 19822 ft 447 kts 78°
2026-05-05 11:57 23.76105 59.29755 20296 ft 451 kts 78°
2026-05-05 11:57 23.76673 59.33132 20748 ft 455 kts 78°
2026-05-05 11:58 23.77246 59.36542 21202 ft 459 kts 78°
2026-05-05 11:58 23.77824 59.39983 21650 ft 463 kts 78°
2026-05-05 11:58 23.78406 59.43452 22093 ft 466 kts 78°
2026-05-05 11:58 23.78923 59.46961 22505 ft 471 kts 83°
2026-05-05 11:59 23.78992 59.50554 22895 ft 477 kts 92°
2026-05-05 11:59 23.78605 59.54162 23313 ft 481 kts 100°
2026-05-05 11:59 23.77769 59.57710 23668 ft 484 kts 107°
2026-05-05 11:59 23.76765 59.61229 23999 ft 487 kts 107°
2026-05-05 12:00 23.75729 59.64765 24340 ft 490 kts 107°
2026-05-05 12:00 23.74688 59.68316 24679 ft 493 kts 107°
2026-05-05 12:00 23.73650 59.71898 25014 ft 496 kts 107°
2026-05-05 12:00 23.72618 59.75500 25349 ft 499 kts 107°
2026-05-05 12:01 23.71591 59.79123 25698 ft 501 kts 107°
2026-05-05 12:01 23.70565 59.82760 26040 ft 503 kts 107°
2026-05-05 12:01 23.69535 59.86422 26365 ft 506 kts 107°
2026-05-05 12:01 23.68500 59.90099 26674 ft 509 kts 107°
2026-05-05 12:02 23.67454 59.93810 26967 ft 513 kts 107°
2026-05-05 12:02 23.66403 59.97534 27266 ft 515 kts 107°
2026-05-05 12:02 23.65346 60.01274 27581 ft 518 kts 107°
2026-05-05 12:02 23.64280 60.05039 27887 ft 521 kts 107°
2026-05-05 12:03 23.63209 60.08816 28216 ft 522 kts 107°
2026-05-05 12:03 23.62131 60.12615 28537 ft 524 kts 107°
2026-05-05 12:03 23.61049 60.16422 28818 ft 527 kts 107°
2026-05-05 12:03 23.59961 60.20247 29087 ft 530 kts 107°
2026-05-05 12:04 23.58882 60.24039 29347 ft 532 kts 107°
2026-05-05 12:04 23.57785 60.27887 29681 ft 532 kts 107°
2026-05-05 12:04 23.56686 60.31738 30048 ft 531 kts 107°
2026-05-05 12:04 23.55590 60.35578 30390 ft 531 kts 107°
2026-05-05 12:05 23.54492 60.39420 30724 ft 530 kts 107°
2026-05-05 12:05 23.53395 60.43255 31062 ft 530 kts 107°
2026-05-05 12:05 23.52299 60.47081 31387 ft 530 kts 107°
2026-05-05 12:05 23.51200 60.50914 31711 ft 530 kts 107°
2026-05-05 12:06 23.50102 60.54742 32034 ft 529 kts 107°
2026-05-05 12:06 23.49003 60.58565 32346 ft 529 kts 108°
2026-05-05 12:06 23.47902 60.62393 32655 ft 529 kts 107°
2026-05-05 12:06 23.46798 60.66228 32741 ft 533 kts 108°
2026-05-05 12:07 23.44579 60.73925 32777 ft 531 kts 108°
2026-05-05 12:07 23.42374 60.81558 32784 ft 527 kts 108°
2026-05-05 12:08 23.40160 60.89206 32808 ft 535 kts 108°
2026-05-05 12:08 23.37893 60.97023 32809 ft 547 kts 108°
2026-05-05 12:09 23.35583 61.04973 32793 ft 553 kts 108°
2026-05-05 12:09 23.33262 61.12946 32792 ft 552 kts 108°
2026-05-05 12:10 23.31393 61.21032 32796 ft 551 kts 98°
2026-05-05 12:10 23.30618 61.29315 32801 ft 550 kts 94°
2026-05-05 12:11 23.29966 61.37539 32797 ft 549 kts 94°
2026-05-05 12:11 23.29263 61.45805 32804 ft 549 kts 95°
2026-05-05 12:12 23.28521 61.54078 32799 ft 549 kts 95°
2026-05-05 12:12 23.27767 61.62346 32805 ft 549 kts 95°
2026-05-05 12:13 23.27012 61.70613 32799 ft 549 kts 95°
2026-05-05 12:13 23.26256 61.78882 32802 ft 550 kts 95°
2026-05-05 12:14 23.25495 61.87153 32804 ft 550 kts 95°
2026-05-05 12:14 23.24730 61.95424 32807 ft 550 kts 95°
2026-05-05 12:15 23.23960 62.03698 32807 ft 550 kts 95°
2026-05-05 12:15 23.23186 62.11964 32805 ft 550 kts 95°
2026-05-05 12:16 23.22408 62.20232 32809 ft 550 kts 95°
2026-05-05 12:16 23.21624 62.28510 32812 ft 550 kts 95°
2026-05-05 12:17 23.20838 62.36773 32809 ft 550 kts 95°
2026-05-05 12:17 23.20046 62.45043 32808 ft 550 kts 95°
2026-05-05 12:18 23.19250 62.53313 32814 ft 550 kts 95°
2026-05-05 12:18 23.18449 62.61579 32810 ft 550 kts 95°
2026-05-05 12:19 23.17645 62.69845 32811 ft 550 kts 95°
2026-05-05 12:19 23.16837 62.78098 32811 ft 550 kts 95°
2026-05-05 12:20 23.16024 62.86364 32811 ft 550 kts 95°
2026-05-05 12:20 23.15212 62.94566 32809 ft 550 kts 95°
2026-05-05 12:21 23.14391 63.02817 32815 ft 549 kts 95°
2026-05-05 12:21 23.13566 63.11070 32812 ft 549 kts 95°
2026-05-05 12:22 23.12737 63.19319 32816 ft 549 kts 95°
2026-05-05 12:22 23.11903 63.27571 32816 ft 550 kts 95°
2026-05-05 12:23 23.11064 63.35829 32810 ft 550 kts 95°
2026-05-05 12:23 23.10221 63.44078 32815 ft 550 kts 95°
2026-05-05 12:24 23.09375 63.52325 32810 ft 550 kts 95°
2026-05-05 12:24 23.08524 63.60574 32813 ft 549 kts 95°
2026-05-05 12:25 23.07669 63.68811 32812 ft 549 kts 95°
2026-05-05 12:25 23.06810 63.77059 32813 ft 549 kts 95°
2026-05-05 12:26 23.05948 63.85292 32813 ft 549 kts 95°
2026-05-05 12:26 23.05098 63.93535 32814 ft 549 kts 95°
2026-05-05 12:27 23.04271 64.01767 32816 ft 549 kts 95°
2026-05-05 12:27 23.03441 64.09998 32816 ft 549 kts 95°
2026-05-05 12:28 23.02744 64.16839 32814 ft 549 kts 95°
2026-05-05 12:28 23.01899 64.25068 32814 ft 549 kts 95°
2026-05-05 12:29 23.01049 64.33306 32820 ft 549 kts 95°
2026-05-05 12:29 23.00196 64.41534 32815 ft 549 kts 95°
2026-05-05 12:30 22.99338 64.49768 32818 ft 549 kts 95°
2026-05-05 12:30 22.98476 64.57996 32817 ft 549 kts 95°
2026-05-05 12:31 22.97610 64.66228 32817 ft 549 kts 95°
2026-05-05 12:31 22.96740 64.74453 32816 ft 549 kts 95°
2026-05-05 12:32 22.95888 64.82681 32819 ft 548 kts 94°
2026-05-05 12:32 22.95732 64.90924 32822 ft 546 kts 88°
2026-05-05 12:33 22.95846 64.99169 32817 ft 547 kts 87°
2026-05-05 12:33 22.95941 65.07418 32818 ft 547 kts 88°
2026-05-05 12:34 22.95991 65.15678 32815 ft 547 kts 88°
2026-05-05 12:34 22.96023 65.23927 32820 ft 547 kts 88°
2026-05-05 12:35 22.96050 65.32184 32818 ft 547 kts 88°
2026-05-05 12:35 22.96077 65.40451 32815 ft 548 kts 88°
2026-05-05 12:36 22.96101 65.48711 32814 ft 548 kts 88°
2026-05-05 12:36 22.96120 65.56973 32819 ft 548 kts 88°
2026-05-05 12:37 22.96135 65.65186 32819 ft 548 kts 88°
2026-05-05 12:37 22.96146 65.73442 32818 ft 547 kts 88°
2026-05-05 12:38 22.96152 65.81698 32817 ft 547 kts 88°
2026-05-05 12:38 22.96154 65.89954 32817 ft 547 kts 88°
2026-05-05 12:39 22.96152 65.98214 32818 ft 547 kts 88°
2026-05-05 12:39 22.96146 66.06459 32816 ft 547 kts 88°
2026-05-05 12:40 22.96135 66.14717 32816 ft 547 kts 88°
2026-05-05 12:40 22.96120 66.22964 32818 ft 547 kts 88°
2026-05-05 12:41 22.96101 66.31215 32812 ft 547 kts 88°
2026-05-05 12:41 22.96077 66.39466 32814 ft 547 kts 88°
2026-05-05 12:42 22.96049 66.47711 32817 ft 547 kts 88°
2026-05-05 12:42 22.96017 66.55968 32816 ft 547 kts 89°
2026-05-05 12:43 22.95981 66.64214 32816 ft 547 kts 89°
2026-05-05 12:43 22.95940 66.72471 32818 ft 547 kts 89°
2026-05-05 12:44 22.95896 66.80725 32816 ft 547 kts 89°
2026-05-05 12:44 22.95847 66.88973 32817 ft 547 kts 89°
2026-05-05 12:45 22.95795 66.97229 32817 ft 547 kts 89°
2026-05-05 12:45 22.95797 67.05482 32822 ft 547 kts 88°
2026-05-05 12:46 22.95830 67.13731 32818 ft 547 kts 88°
2026-05-05 12:46 22.95853 67.21981 32818 ft 547 kts 88°
2026-05-05 12:47 22.95862 67.30233 32819 ft 547 kts 88°
2026-05-05 12:47 22.95864 67.38480 32821 ft 547 kts 88°
2026-05-05 12:48 22.95863 67.46728 32820 ft 547 kts 88°
2026-05-05 12:48 22.95858 67.54935 32820 ft 547 kts 88°
2026-05-05 12:49 22.95850 67.63188 32823 ft 547 kts 88°
2026-05-05 12:49 22.95836 67.71440 32823 ft 547 kts 88°
2026-05-05 12:50 22.95819 67.79756 32827 ft 547 kts 88°
2026-05-05 12:50 22.95798 67.87958 32825 ft 548 kts 88°
2026-05-05 12:51 22.95801 67.96222 32823 ft 548 kts 88°
2026-05-05 12:51 22.95814 68.04489 32824 ft 548 kts 88°
2026-05-05 12:52 22.95820 68.12748 32825 ft 548 kts 88°
2026-05-05 12:52 22.95818 68.21016 32825 ft 548 kts 88°
2026-05-05 12:53 22.95811 68.29284 32827 ft 548 kts 88°
2026-05-05 12:53 22.95795 68.37550 32826 ft 548 kts 89°
2026-05-05 12:54 22.95165 68.49947 32826 ft 549 kts 92°
2026-05-05 12:55 22.94635 68.58211 32827 ft 549 kts 92°
2026-05-05 12:55 22.94131 68.66475 32823 ft 549 kts 92°
2026-05-05 12:56 22.93644 68.74743 32825 ft 549 kts 92°
2026-05-05 12:56 22.93156 68.83005 32821 ft 549 kts 92°
2026-05-05 12:57 22.92660 68.91275 32823 ft 549 kts 92°
2026-05-05 12:57 22.92160 68.99529 32822 ft 549 kts 92°
2026-05-05 12:58 22.91654 69.07792 32826 ft 549 kts 92°
2026-05-05 12:58 22.91145 69.16050 32823 ft 549 kts 92°
2026-05-05 12:59 22.90631 69.24307 32824 ft 549 kts 92°
2026-05-05 12:59 22.90114 69.32561 32825 ft 549 kts 92°
2026-05-05 13:00 22.89330 69.44938 32821 ft 548 kts 92°
2026-05-05 13:01 22.88269 69.61439 32820 ft 548 kts 92°
2026-05-05 13:01 22.87733 69.69691 32819 ft 548 kts 92°
2026-05-05 13:02 22.87230 69.77936 32819 ft 548 kts 92°
2026-05-05 13:02 22.86762 69.86184 32821 ft 548 kts 91°
2026-05-05 13:03 22.86287 69.94442 32817 ft 549 kts 92°
2026-05-05 13:03 22.85800 70.02693 32808 ft 549 kts 92°
2026-05-05 13:04 22.85309 70.10903 32808 ft 549 kts 92°
2026-05-05 13:04 22.84807 70.19212 32808 ft 549 kts 92°
2026-05-05 13:05 22.84306 70.27460 32804 ft 548 kts 92°
2026-05-05 13:05 22.83803 70.35653 32802 ft 548 kts 92°
2026-05-05 13:06 22.83294 70.43901 32799 ft 548 kts 92°
2026-05-05 13:06 22.82781 70.52133 32802 ft 548 kts 92°
2026-05-05 13:07 22.82262 70.60375 32801 ft 548 kts 92°
2026-05-05 13:07 22.81741 70.68611 32798 ft 548 kts 92°
2026-05-05 13:08 22.81216 70.76843 32797 ft 548 kts 92°
2026-05-05 13:08 22.81109 70.85071 32796 ft 545 kts 84°
2026-05-05 13:09 22.82168 70.93166 32800 ft 542 kts 77°
2026-05-05 13:09 22.83458 71.01214 32785 ft 543 kts 77°
2026-05-05 13:10 22.84712 71.09297 32781 ft 543 kts 78°
2026-05-05 13:10 22.85923 71.17382 32777 ft 544 kts 78°
2026-05-05 13:11 22.87121 71.25477 32780 ft 544 kts 78°
2026-05-05 13:11 22.88319 71.33584 32768 ft 544 kts 78°
2026-05-05 13:12 22.89390 71.40834 32771 ft 545 kts 78°
2026-05-05 13:12 22.90585 71.48950 32762 ft 545 kts 78°
2026-05-05 13:13 22.91776 71.57070 32765 ft 545 kts 78°
2026-05-05 13:13 22.92143 71.59582 32761 ft 545 kts 78°
2026-05-05 13:14 22.93129 71.66335 32761 ft 546 kts 78°
2026-05-05 13:14 22.93707 71.70302 32762 ft 546 kts 78°
2026-05-05 13:15 22.94597 71.76425 32753 ft 546 kts 78°
2026-05-05 13:15 22.95598 71.83336 32767 ft 546 kts 78°
2026-05-05 13:16 22.96774 71.91479 32764 ft 546 kts 78°
2026-05-05 13:16 22.97947 71.99630 32762 ft 547 kts 78°
2026-05-05 13:17 22.99116 72.07785 32760 ft 547 kts 78°
2026-05-05 13:17 23.00280 72.15940 32764 ft 547 kts 78°
2026-05-05 13:18 23.01443 72.24112 32753 ft 548 kts 78°
2026-05-05 13:18 23.02601 72.32285 32759 ft 548 kts 78°
2026-05-05 13:19 23.03756 72.40466 32754 ft 548 kts 78°
2026-05-05 13:19 23.04907 72.48653 32748 ft 549 kts 78°
2026-05-05 13:20 23.06056 72.56850 32749 ft 549 kts 78°
2026-05-05 13:20 23.07096 72.65070 32748 ft 551 kts 83°
2026-05-05 13:21 23.07578 72.73384 32763 ft 552 kts 84°
2026-05-05 13:21 23.07982 72.81711 32763 ft 553 kts 84°
2026-05-05 13:22 23.08413 72.90049 32770 ft 553 kts 84°
2026-05-05 13:22 23.08869 72.98398 32775 ft 554 kts 84°
2026-05-05 13:23 23.09325 73.06688 32756 ft 554 kts 84°
2026-05-05 13:23 23.09778 73.15050 32772 ft 554 kts 84°
2026-05-05 13:24 23.10223 73.23415 32761 ft 555 kts 84°
2026-05-05 13:24 23.10664 73.31780 32764 ft 555 kts 84°
2026-05-05 13:25 23.11101 73.40161 32780 ft 556 kts 84°
2026-05-05 13:25 23.11534 73.48552 32768 ft 556 kts 84°
2026-05-05 13:26 23.11964 73.56945 32772 ft 557 kts 84°
2026-05-05 13:26 23.12389 73.65348 32775 ft 557 kts 84°
2026-05-05 13:27 23.12810 73.73755 32778 ft 558 kts 84°
2026-05-05 13:27 23.13227 73.82173 32778 ft 558 kts 85°
2026-05-05 13:28 23.13639 73.90602 32785 ft 558 kts 85°
2026-05-05 13:28 23.14048 73.99030 32794 ft 559 kts 85°
2026-05-05 13:29 23.14454 74.07476 32976 ft 561 kts 85°
2026-05-05 13:29 23.14655 74.11708 33215 ft 560 kts 85°
2026-05-05 13:29 23.14854 74.15931 33462 ft 559 kts 85°
2026-05-05 13:30 23.15052 74.20143 33706 ft 558 kts 85°
2026-05-05 13:30 23.15249 74.24358 33923 ft 558 kts 85°
2026-05-05 13:30 23.15442 74.28507 34101 ft 557 kts 85°
2026-05-05 13:30 23.15639 74.32767 34310 ft 557 kts 85°
2026-05-05 13:31 23.15811 74.36904 34525 ft 556 kts 86°
2026-05-05 13:31 23.15925 74.41108 34700 ft 556 kts 87°
2026-05-05 13:31 23.16066 74.49531 34798 ft 557 kts 88°
2026-05-05 13:32 23.16198 74.57945 34814 ft 556 kts 88°
2026-05-05 13:32 23.16353 74.66326 34821 ft 554 kts 87°
2026-05-05 13:33 23.16518 74.74694 34823 ft 554 kts 88°
2026-05-05 13:33 23.16678 74.83058 34833 ft 554 kts 88°
2026-05-05 13:34 23.16831 74.91432 34832 ft 554 kts 88°
2026-05-05 13:34 23.16978 74.99808 34838 ft 555 kts 88°
2026-05-05 13:35 23.17121 75.08193 34798 ft 556 kts 88°
2026-05-05 13:35 23.17260 75.16588 34801 ft 556 kts 88°
2026-05-05 13:36 23.17395 75.24990 34800 ft 557 kts 88°
2026-05-05 13:36 23.17525 75.33362 34798 ft 557 kts 88°
2026-05-05 13:37 23.17652 75.41833 34801 ft 557 kts 88°
2026-05-05 13:37 23.17773 75.50205 34799 ft 558 kts 88°
2026-05-05 13:38 23.17890 75.58636 34801 ft 558 kts 88°
2026-05-05 13:38 23.18003 75.67062 34804 ft 558 kts 88°
2026-05-05 13:39 23.18111 75.75497 34801 ft 558 kts 88°
2026-05-05 13:39 23.18215 75.83935 34805 ft 558 kts 88°
2026-05-05 13:40 23.18315 75.92376 34807 ft 559 kts 88°
2026-05-05 13:40 23.18444 76.00818 34805 ft 559 kts 86°
2026-05-05 13:41 23.19043 76.09231 34809 ft 558 kts 83°
2026-05-05 13:41 23.19749 76.17635 34807 ft 559 kts 83°
2026-05-05 13:42 23.20430 76.26060 34807 ft 560 kts 84°
2026-05-05 13:42 23.21077 76.34492 34807 ft 560 kts 84°
2026-05-05 13:43 23.21712 76.42941 34805 ft 561 kts 84°
2026-05-05 13:43 23.22346 76.51396 34805 ft 561 kts 84°
2026-05-05 13:44 23.22978 76.59855 34804 ft 562 kts 84°
2026-05-05 13:44 23.23606 76.68316 34808 ft 562 kts 84°
2026-05-05 13:45 23.24230 76.76787 34805 ft 562 kts 84°
2026-05-05 13:45 23.24849 76.85264 34803 ft 562 kts 84°
2026-05-05 13:46 23.25464 76.93741 34804 ft 563 kts 84°
2026-05-05 13:46 23.26071 77.02173 34820 ft 563 kts 84°
2026-05-05 13:47 23.26677 77.10658 34829 ft 563 kts 84°
2026-05-05 13:47 23.27284 77.19215 34852 ft 563 kts 84°
2026-05-05 13:48 23.27878 77.27657 34857 ft 564 kts 84°
2026-05-05 13:48 23.28295 77.36169 34865 ft 564 kts 91°
2026-05-05 13:49 23.27962 77.44695 34859 ft 564 kts 93°
2026-05-05 13:49 23.27536 77.53219 34843 ft 565 kts 93°
2026-05-05 13:50 23.27149 77.61744 34825 ft 565 kts 92°
2026-05-05 13:50 23.26792 77.70285 34817 ft 565 kts 92°
2026-05-05 13:51 23.26437 77.78826 34810 ft 565 kts 92°
2026-05-05 13:51 23.26075 77.87367 34813 ft 566 kts 92°
2026-05-05 13:52 23.25702 77.95919 34807 ft 566 kts 92°
2026-05-05 13:52 23.25326 78.04455 34812 ft 566 kts 92°
2026-05-05 13:53 23.24946 78.13000 34810 ft 566 kts 92°
2026-05-05 13:53 23.24561 78.21541 34814 ft 566 kts 92°
2026-05-05 13:54 23.24171 78.30087 34810 ft 566 kts 93°
2026-05-05 13:54 23.23776 78.38635 34811 ft 566 kts 93°
2026-05-05 13:55 23.23377 78.47191 34812 ft 567 kts 93°
2026-05-05 13:55 23.22973 78.55745 34814 ft 567 kts 93°
2026-05-05 13:56 23.22563 78.64312 34816 ft 568 kts 93°
2026-05-05 13:56 23.22150 78.72887 34855 ft 568 kts 93°
2026-05-05 13:57 23.21878 78.81469 34857 ft 568 kts 91°
2026-05-05 13:57 23.21810 78.90066 34859 ft 569 kts 90°
2026-05-05 13:58 23.21730 78.98604 34860 ft 569 kts 91°
2026-05-05 13:58 23.21600 79.07203 34857 ft 569 kts 91°
2026-05-05 13:59 23.21372 79.20169 34857 ft 569 kts 91°
2026-05-05 14:00 23.21170 79.31610 34855 ft 569 kts 91°
2026-05-05 14:00 23.20989 79.41607 34855 ft 569 kts 91°
2026-05-05 14:01 23.20827 79.50207 34856 ft 569 kts 91°
2026-05-05 14:01 23.20652 79.58813 34855 ft 569 kts 92°
2026-05-05 14:02 23.20313 79.67398 34862 ft 569 kts 93°
2026-05-05 14:02 23.19973 79.74594 34860 ft 569 kts 93°
2026-05-05 14:03 23.19589 79.83182 34867 ft 569 kts 93°
2026-05-05 14:03 23.19223 79.91772 34856 ft 569 kts 93°
2026-05-05 14:04 23.18856 80.00301 34856 ft 569 kts 93°
2026-05-05 14:04 23.18473 80.08881 34859 ft 569 kts 94°
2026-05-05 14:05 23.18037 80.17464 34859 ft 568 kts 94°
2026-05-05 14:05 23.17583 80.26038 34864 ft 568 kts 94°
2026-05-05 14:06 23.17132 80.34617 34871 ft 568 kts 94°
2026-05-05 14:06 23.16683 80.43182 34876 ft 568 kts 94°
2026-05-05 14:07 23.16229 80.51750 34883 ft 568 kts 94°
2026-05-05 14:07 23.15770 80.60311 34891 ft 567 kts 94°
2026-05-05 14:08 23.15306 80.68867 34891 ft 567 kts 94°
2026-05-05 14:08 23.14839 80.77411 34899 ft 567 kts 94°
2026-05-05 14:09 23.14372 80.85955 34897 ft 566 kts 94°
2026-05-05 14:09 23.13905 80.94494 34902 ft 566 kts 94°
2026-05-05 14:10 23.13433 81.03019 34901 ft 565 kts 94°
2026-05-05 14:10 23.12955 81.11544 34913 ft 565 kts 94°
2026-05-05 14:11 23.12474 81.20052 34918 ft 564 kts 94°
2026-05-05 14:11 23.11989 81.28551 34905 ft 563 kts 94°
2026-05-05 14:12 23.11499 81.37039 34911 ft 562 kts 94°
2026-05-05 14:12 23.11007 81.45505 34911 ft 561 kts 94°
2026-05-05 14:13 23.10512 81.53956 34910 ft 561 kts 94°
2026-05-05 14:13 23.10011 81.62402 34909 ft 560 kts 94°
2026-05-05 14:14 23.09507 81.70829 34908 ft 559 kts 94°
2026-05-05 14:14 23.09000 81.79242 34909 ft 558 kts 94°
2026-05-05 14:15 23.08489 81.87636 34906 ft 557 kts 94°
2026-05-05 14:15 23.07975 81.96019 34905 ft 556 kts 94°
2026-05-05 14:16 23.07458 82.04376 34903 ft 555 kts 94°
2026-05-05 14:16 23.06937 82.12734 34896 ft 554 kts 94°
2026-05-05 14:17 23.06449 82.21081 34893 ft 554 kts 93°
2026-05-05 14:17 23.06096 82.29436 34888 ft 554 kts 92°
2026-05-05 14:18 23.05765 82.37804 34892 ft 555 kts 93°
2026-05-05 14:18 23.05409 82.46175 34894 ft 555 kts 93°
2026-05-05 14:19 23.05033 82.54558 34890 ft 556 kts 93°
2026-05-05 14:19 23.04650 82.62935 34897 ft 556 kts 93°
2026-05-05 14:20 23.04264 82.71321 34902 ft 556 kts 94°
2026-05-05 14:20 23.03877 82.79650 34904 ft 556 kts 94°
2026-05-05 14:21 23.03483 82.88073 34910 ft 555 kts 94°
2026-05-05 14:21 23.03088 82.96385 34910 ft 555 kts 94°
2026-05-05 14:22 23.02685 83.04798 34918 ft 554 kts 94°
2026-05-05 14:22 23.02283 83.13083 34928 ft 553 kts 94°
2026-05-05 14:23 23.01875 83.21406 34929 ft 552 kts 94°
2026-05-05 14:23 23.01462 83.29718 34937 ft 551 kts 94°
2026-05-05 14:24 23.01047 83.38020 34934 ft 551 kts 94°
2026-05-05 14:24 23.00626 83.46323 34948 ft 551 kts 94°
2026-05-05 14:25 23.00201 83.54645 34951 ft 553 kts 94°
2026-05-05 14:25 22.99769 83.62995 34950 ft 555 kts 94°
2026-05-05 14:26 22.99333 83.71365 34954 ft 556 kts 94°
2026-05-05 14:26 22.98890 83.79753 34963 ft 558 kts 94°
2026-05-05 14:27 22.98443 83.88162 34961 ft 559 kts 95°
2026-05-05 14:27 22.97989 83.96586 34963 ft 560 kts 95°
2026-05-05 14:28 22.97531 84.05022 34955 ft 560 kts 95°
2026-05-05 14:28 22.97069 84.13463 34961 ft 560 kts 95°
2026-05-05 14:29 22.96507 84.21880 34967 ft 559 kts 96°
2026-05-05 14:29 22.95874 84.30294 34972 ft 559 kts 96°
2026-05-05 14:30 22.95246 84.38704 34971 ft 559 kts 96°
2026-05-05 14:30 22.94632 84.47112 34972 ft 559 kts 96°
2026-05-05 14:31 22.94018 84.55518 34972 ft 559 kts 96°
2026-05-05 14:31 22.93399 84.63923 34974 ft 559 kts 96°
2026-05-05 14:32 22.92773 84.72330 34973 ft 560 kts 96°
2026-05-05 14:32 22.92142 84.80757 34975 ft 560 kts 96°
2026-05-05 14:33 22.91506 84.89187 34972 ft 561 kts 96°
2026-05-05 14:33 22.90864 84.97634 34967 ft 562 kts 96°
2026-05-05 14:34 22.90217 85.06084 34974 ft 563 kts 96°
2026-05-05 14:34 22.89565 85.14556 34966 ft 564 kts 96°
2026-05-05 14:35 22.88908 85.23036 34971 ft 565 kts 96°
2026-05-05 14:35 22.88246 85.31525 34970 ft 565 kts 96°
2026-05-05 14:36 22.87584 85.39969 34965 ft 566 kts 96°
2026-05-05 14:36 22.86908 85.48518 34964 ft 566 kts 97°
2026-05-05 14:37 22.86237 85.56967 34957 ft 566 kts 97°
2026-05-05 14:37 22.85551 85.65524 34941 ft 566 kts 97°
2026-05-05 14:38 22.84871 85.73961 34937 ft 566 kts 97°
2026-05-05 14:38 22.84181 85.82468 34936 ft 566 kts 97°
2026-05-05 14:39 22.83488 85.90964 34927 ft 566 kts 97°
2026-05-05 14:39 22.82788 85.99472 34924 ft 566 kts 97°
2026-05-05 14:40 22.82085 86.07976 34923 ft 566 kts 97°
2026-05-05 14:40 22.81378 86.16472 34915 ft 566 kts 97°
2026-05-05 14:41 22.80795 86.24990 34912 ft 567 kts 95°
2026-05-05 14:41 22.80388 86.33518 34908 ft 567 kts 94°
2026-05-05 14:42 22.79978 86.42049 34901 ft 566 kts 95°
2026-05-05 14:42 22.79527 86.50563 34897 ft 566 kts 95°
2026-05-05 14:43 22.79056 86.59062 34893 ft 565 kts 95°
2026-05-05 14:43 22.78579 86.67561 34892 ft 565 kts 95°
2026-05-05 14:44 22.78101 86.76048 34885 ft 564 kts 95°
2026-05-05 14:44 22.77622 86.84528 34881 ft 563 kts 95°
2026-05-05 14:45 22.77138 86.92996 34879 ft 563 kts 95°
2026-05-05 14:45 22.76650 87.01455 34872 ft 562 kts 95°
2026-05-05 14:46 22.76242 87.08479 34871 ft 562 kts 95°
2026-05-05 14:46 22.75662 87.18348 34868 ft 561 kts 95°
2026-05-05 14:47 22.75162 87.26786 34864 ft 561 kts 95°
2026-05-05 14:47 22.74743 87.33796 34863 ft 561 kts 95°
2026-05-05 14:48 22.74235 87.42226 34861 ft 560 kts 95°
2026-05-05 14:48 22.73724 87.50650 34859 ft 560 kts 96°
2026-05-05 14:49 22.73208 87.59066 34860 ft 560 kts 96°
2026-05-05 14:49 22.72688 87.67477 34853 ft 560 kts 96°
2026-05-05 14:50 22.72163 87.75884 34862 ft 560 kts 96°
2026-05-05 14:50 22.71634 87.84295 34846 ft 559 kts 96°
2026-05-05 14:51 22.71101 87.92704 34844 ft 559 kts 96°
2026-05-05 14:51 22.70564 88.01104 34840 ft 559 kts 96°
2026-05-05 14:52 22.70023 88.09506 34847 ft 559 kts 96°
2026-05-05 14:52 22.69476 88.17912 34840 ft 559 kts 96°
2026-05-05 14:53 22.68926 88.26313 34848 ft 559 kts 96°
2026-05-05 14:53 22.68371 88.34716 34860 ft 559 kts 96°
2026-05-05 14:54 22.67811 88.43116 34863 ft 559 kts 96°
2026-05-05 14:54 22.66716 88.51362 34866 ft 556 kts 103°
2026-05-05 14:55 22.65267 88.59578 34854 ft 556 kts 103°
2026-05-05 14:55 22.63838 88.67807 34853 ft 556 kts 103°
2026-05-05 14:56 22.62441 88.76102 34855 ft 556 kts 102°
2026-05-05 14:56 22.61068 88.84267 34844 ft 555 kts 103°
2026-05-05 14:57 22.59674 88.92490 34846 ft 555 kts 102°
2026-05-05 14:57 22.58582 89.00758 34855 ft 556 kts 99°
2026-05-05 14:58 22.57708 89.09065 34850 ft 555 kts 98°
2026-05-05 14:58 22.56838 89.17363 34847 ft 555 kts 98°
2026-05-05 14:59 22.55933 89.25651 34848 ft 555 kts 99°
2026-05-05 14:59 22.55009 89.33927 34845 ft 554 kts 99°
2026-05-05 15:00 22.54237 89.40808 34853 ft 554 kts 99°
2026-05-05 15:00 22.53149 89.50478 34851 ft 554 kts 99°
2026-05-05 15:01 22.52217 89.58736 34854 ft 554 kts 99°
2026-05-05 15:01 22.51280 89.67000 34851 ft 554 kts 99°
2026-05-05 15:02 22.50338 89.75264 34856 ft 553 kts 99°
2026-05-05 15:02 22.49392 89.83528 34857 ft 554 kts 99°
2026-05-05 15:03 22.48442 89.91789 34858 ft 554 kts 99°
2026-05-05 15:03 22.47487 90.00053 34868 ft 554 kts 99°
2026-05-05 15:04 22.46527 90.08327 34872 ft 554 kts 99°
2026-05-05 15:04 22.45563 90.16595 34874 ft 555 kts 99°
2026-05-05 15:05 22.44116 90.28946 34870 ft 555 kts 99°
2026-05-05 15:06 22.43141 90.37217 34873 ft 555 kts 99°
2026-05-05 15:06 22.42161 90.45488 34872 ft 555 kts 99°
2026-05-05 15:07 22.41178 90.53753 34875 ft 554 kts 99°
2026-05-05 15:07 22.40192 90.62009 34874 ft 554 kts 99°
2026-05-05 15:08 22.39202 90.70265 34878 ft 554 kts 99°
2026-05-05 15:08 22.38208 90.78506 34879 ft 553 kts 99°
2026-05-05 15:09 22.37210 90.86754 34874 ft 553 kts 99°
2026-05-05 15:09 22.36210 90.94983 34877 ft 552 kts 99°
2026-05-05 15:10 22.35206 91.03205 34874 ft 552 kts 99°
2026-05-05 15:10 22.34199 91.11421 34876 ft 552 kts 99°
2026-05-05 15:11 22.33189 91.19629 34875 ft 551 kts 99°
2026-05-05 15:11 22.32174 91.27835 34876 ft 551 kts 99°
2026-05-05 15:12 22.31157 91.36038 34878 ft 551 kts 99°
2026-05-05 15:12 22.30175 91.44245 34880 ft 551 kts 98°
2026-05-05 15:13 22.29263 91.52455 34880 ft 551 kts 98°
2026-05-05 15:13 22.28342 91.60660 34882 ft 550 kts 98°
2026-05-05 15:14 22.27410 91.68808 34883 ft 550 kts 98°
2026-05-05 15:14 22.26470 91.77002 34887 ft 550 kts 98°
2026-05-05 15:15 22.26213 91.85308 34891 ft 551 kts 88°
2026-05-05 15:15 22.27162 91.93511 34890 ft 551 kts 81°
2026-05-05 15:16 22.28385 92.01684 34888 ft 551 kts 81°
2026-05-05 15:16 22.29542 92.09863 34889 ft 551 kts 82°
2026-05-05 15:17 22.30648 92.17995 34892 ft 551 kts 82°
2026-05-05 15:17 22.31763 92.26193 34894 ft 551 kts 82°
2026-05-05 15:18 22.32884 92.34377 34897 ft 551 kts 82°
2026-05-05 15:18 22.34010 92.42570 34903 ft 551 kts 82°
2026-05-05 15:19 22.35129 92.50759 34904 ft 551 kts 82°
2026-05-05 15:19 22.36242 92.58939 34914 ft 551 kts 82°
2026-05-05 15:20 22.37351 92.67121 34918 ft 550 kts 82°
2026-05-05 15:20 22.38456 92.75306 34925 ft 550 kts 82°
2026-05-05 15:21 22.39559 92.83485 34938 ft 550 kts 82°
2026-05-05 15:21 22.40659 92.91654 34946 ft 549 kts 82°
2026-05-05 15:22 22.41754 92.99823 34959 ft 549 kts 82°
2026-05-05 15:22 22.42847 93.07991 34954 ft 550 kts 82°
2026-05-05 15:23 22.43937 93.16176 34985 ft 551 kts 82°
2026-05-05 15:23 22.45022 93.24379 35010 ft 552 kts 82°
2026-05-05 15:24 22.46104 93.32594 35003 ft 553 kts 82°
2026-05-05 15:24 22.47184 93.40827 34997 ft 553 kts 82°
2026-05-05 15:25 22.48262 93.49068 34999 ft 554 kts 82°
2026-05-05 15:25 22.49336 93.57304 34990 ft 553 kts 82°
2026-05-05 15:26 22.50398 93.65482 34979 ft 553 kts 82°
2026-05-05 15:26 22.51461 93.73712 34948 ft 553 kts 82°
2026-05-05 15:27 22.52521 93.81936 34923 ft 552 kts 82°
2026-05-05 15:27 22.53576 93.90149 34914 ft 551 kts 82°
2026-05-05 15:28 22.54626 93.98350 34896 ft 550 kts 82°
2026-05-05 15:28 22.55664 94.06545 34881 ft 550 kts 82°
2026-05-05 15:29 22.56700 94.14746 34880 ft 550 kts 82°
2026-05-05 15:29 22.57737 94.22959 34878 ft 551 kts 82°
2026-05-05 15:30 22.58768 94.31169 34887 ft 550 kts 82°
2026-05-05 15:30 22.59794 94.39384 34867 ft 551 kts 82°
2026-05-05 15:31 22.60818 94.47601 34876 ft 551 kts 82°
2026-05-05 15:31 22.61837 94.55812 34870 ft 551 kts 82°
2026-05-05 15:32 22.62851 94.64029 34848 ft 551 kts 82°
2026-05-05 15:32 22.63860 94.72241 34851 ft 550 kts 82°
2026-05-05 15:33 22.64865 94.80448 34845 ft 550 kts 82°
2026-05-05 15:33 22.65865 94.88651 34845 ft 549 kts 82°
2026-05-05 15:34 22.66692 94.95458 34836 ft 549 kts 82°
2026-05-05 15:34 22.67683 95.03653 34836 ft 548 kts 82°
2026-05-05 15:35 22.68668 95.11833 34838 ft 548 kts 82°
2026-05-05 15:35 22.69806 95.21333 34842 ft 547 kts 83°
2026-05-05 15:36 22.70780 95.29498 34830 ft 546 kts 83°
2026-05-05 15:36 22.71748 95.37653 34833 ft 546 kts 83°
2026-05-05 15:37 22.72556 95.44483 34828 ft 546 kts 83°
2026-05-05 15:37 22.73517 95.52644 34829 ft 546 kts 83°
2026-05-05 15:38 22.74473 95.60796 34832 ft 546 kts 83°
2026-05-05 15:38 22.75424 95.68947 34831 ft 546 kts 83°
2026-05-05 15:39 22.76372 95.77103 34835 ft 546 kts 83°
2026-05-05 15:39 22.77309 95.85205 34838 ft 546 kts 83°
2026-05-05 15:40 22.78249 95.93359 34840 ft 545 kts 83°
2026-05-05 15:40 22.79190 96.01571 34853 ft 546 kts 83°
2026-05-05 15:41 22.80115 96.09677 34864 ft 545 kts 83°
2026-05-05 15:41 22.81042 96.17836 34870 ft 545 kts 83°
2026-05-05 15:42 22.81965 96.25998 34887 ft 545 kts 83°
2026-05-05 15:42 22.82882 96.34150 34899 ft 545 kts 83°
2026-05-05 15:43 22.83794 96.42292 34918 ft 544 kts 83°
2026-05-05 15:43 22.84704 96.50446 34924 ft 544 kts 83°
2026-05-05 15:44 22.85609 96.58582 34935 ft 544 kts 83°
2026-05-05 15:44 22.86508 96.66732 34936 ft 544 kts 83°
2026-05-05 15:45 22.87402 96.74879 34933 ft 544 kts 83°
2026-05-05 15:45 22.88293 96.83033 34941 ft 544 kts 83°
2026-05-05 15:46 22.89181 96.91183 34949 ft 544 kts 83°
2026-05-05 15:46 22.90065 96.99334 34938 ft 544 kts 83°
2026-05-05 15:47 22.90942 97.07480 34941 ft 544 kts 83°
2026-05-05 15:47 22.91816 97.15622 34942 ft 543 kts 83°
2026-05-05 15:48 22.92685 97.23755 34947 ft 543 kts 83°
2026-05-05 15:48 22.93550 97.31892 34940 ft 542 kts 83°
2026-05-05 15:49 22.94409 97.40018 34936 ft 543 kts 83°
2026-05-05 15:49 22.95265 97.48153 34944 ft 542 kts 83°
2026-05-05 15:50 22.96115 97.56274 34938 ft 542 kts 83°
2026-05-05 15:50 22.96961 97.64396 34936 ft 542 kts 83°
2026-05-05 15:51 22.97860 97.72519 34941 ft 541 kts 80°
2026-05-05 15:51 22.99688 97.80426 34926 ft 540 kts 69°
2026-05-05 15:52 23.02340 97.88043 34931 ft 540 kts 68°
2026-05-05 15:52 23.05024 97.95658 34958 ft 540 kts 68°
2026-05-05 15:53 23.07659 98.03294 34961 ft 540 kts 68°
2026-05-05 15:53 23.10265 98.10946 34967 ft 540 kts 69°
2026-05-05 15:54 23.12863 98.18598 34947 ft 540 kts 69°
2026-05-05 15:54 23.15464 98.26259 34964 ft 540 kts 69°
2026-05-05 15:55 23.18061 98.33915 34947 ft 540 kts 68°
2026-05-05 15:55 23.20656 98.41575 34958 ft 539 kts 69°
2026-05-05 15:56 23.23239 98.49224 34964 ft 539 kts 69°
2026-05-05 15:56 23.25820 98.56881 34964 ft 539 kts 68°
2026-05-05 15:57 23.28380 98.64487 34948 ft 539 kts 69°
2026-05-05 15:57 23.30953 98.72149 34948 ft 539 kts 69°
2026-05-05 15:58 23.33541 98.79864 34962 ft 539 kts 69°
2026-05-05 15:58 23.36108 98.87532 34959 ft 540 kts 69°
2026-05-05 15:59 23.38648 98.95219 34982 ft 540 kts 70°
2026-05-05 15:59 23.41061 99.02957 34974 ft 540 kts 70°
2026-05-05 16:00 23.43451 99.10708 34971 ft 540 kts 70°
2026-05-05 16:00 23.45857 99.18450 34980 ft 540 kts 70°
2026-05-05 16:01 23.48251 99.26136 34977 ft 540 kts 70°
2026-05-05 16:01 23.50656 99.33876 34981 ft 539 kts 70°
2026-05-05 16:02 23.53237 99.41525 34978 ft 537 kts 64°
2026-05-05 16:02 23.56772 99.48653 35003 ft 535 kts 58°
2026-05-05 16:03 23.60524 99.55663 34987 ft 535 kts 58°
2026-05-05 16:03 23.64243 99.62692 34980 ft 535 kts 58°
2026-05-05 16:04 23.67924 99.69751 35005 ft 535 kts 58°
2026-05-05 16:04 23.71594 99.76819 34988 ft 536 kts 58°
2026-05-05 16:05 23.75264 99.83894 34984 ft 535 kts 58°
2026-05-05 16:05 23.78926 99.90954 34982 ft 534 kts 58°
2026-05-05 16:06 23.82589 99.98023 34986 ft 535 kts 58°
2026-05-05 16:06 23.86252 100.05108 34981 ft 536 kts 58°
2026-05-05 16:07 23.89920 100.12215 34990 ft 537 kts 58°
2026-05-05 16:07 23.93588 100.19332 34993 ft 538 kts 58°
2026-05-05 16:08 23.97260 100.26465 34987 ft 539 kts 58°
2026-05-05 16:08 24.00904 100.33556 34988 ft 539 kts 58°
2026-05-05 16:09 24.04574 100.40701 34993 ft 538 kts 58°
2026-05-05 16:09 24.08228 100.47831 34999 ft 537 kts 58°
2026-05-05 16:10 24.11877 100.54963 35003 ft 537 kts 58°
2026-05-05 16:10 24.15498 100.62111 35009 ft 537 kts 58°
2026-05-05 16:11 24.19082 100.69281 35010 ft 537 kts 59°
2026-05-05 16:12 24.26242 100.83631 35015 ft 537 kts 58°
2026-05-05 16:13 24.35190 101.01581 35029 ft 537 kts 59°
2026-05-05 16:13 24.38769 101.08780 35020 ft 538 kts 58°
2026-05-05 16:14 24.45932 101.23226 35029 ft 540 kts 58°
2026-05-05 16:15 24.53106 101.37736 35026 ft 540 kts 58°
2026-05-05 16:16 24.60167 101.52314 35039 ft 541 kts 64°
2026-05-05 16:17 24.62360 101.60268 35042 ft 548 kts 77°
2026-05-05 16:17 24.62852 101.64419 35303 ft 550 kts 85°
2026-05-05 16:18 24.63202 101.72809 35824 ft 549 kts 86°
2026-05-05 16:18 24.63348 101.77000 36119 ft 548 kts 86°
2026-05-05 16:18 24.63684 101.85356 36647 ft 547 kts 86°
2026-05-05 16:19 24.63873 101.89535 36845 ft 547 kts 85°
2026-05-05 16:19 24.64070 101.93717 37017 ft 548 kts 85°
2026-05-05 16:19 24.64401 102.00658 37087 ft 545 kts 85°
2026-05-05 16:20 24.65160 102.17136 37071 ft 537 kts 85°
2026-05-05 16:22 24.66073 102.37648 37112 ft 538 kts 85°
2026-05-05 16:23 24.66787 102.54145 37131 ft 541 kts 85°
2026-05-05 16:23 24.67478 102.66544 37118 ft 543 kts 84°
2026-05-05 16:24 24.67918 102.74840 37113 ft 545 kts 89°
2026-05-05 16:24 24.67038 102.83108 37111 ft 547 kts 102°
2026-05-05 16:25 24.66052 102.87139 37091 ft 547 kts 109°
2026-05-05 16:25 24.61987 102.98845 37102 ft 547 kts 111°
2026-05-05 16:26 24.56787 103.14530 37092 ft 546 kts 105°
2026-05-05 16:27 24.55304 103.22686 37091 ft 544 kts 96°
2026-05-05 16:27 24.54946 103.30970 37088 ft 543 kts 89°
2026-05-05 16:28 24.54879 103.39263 37088 ft 543 kts 89°
2026-05-05 16:28 24.54759 103.47549 37083 ft 543 kts 90°
2026-05-05 16:29 24.54589 103.55837 37076 ft 543 kts 90°
2026-05-05 16:29 24.54415 103.64129 37066 ft 543 kts 90°
2026-05-05 16:30 24.54185 103.72418 37065 ft 543 kts 93°
2026-05-05 16:30 24.53001 103.80613 37057 ft 544 kts 103°
2026-05-05 16:31 24.51225 103.88647 37042 ft 545 kts 103°
2026-05-05 16:31 24.49434 103.96728 37023 ft 545 kts 103°
2026-05-05 16:32 24.47685 104.04833 37021 ft 545 kts 102°
2026-05-05 16:32 24.45952 104.12945 37003 ft 546 kts 103°
2026-05-05 16:33 24.44215 104.21060 36986 ft 547 kts 102°
2026-05-05 16:33 24.42468 104.29177 36978 ft 546 kts 102°
2026-05-05 16:34 24.40716 104.37290 36969 ft 547 kts 103°
2026-05-05 16:34 24.38957 104.45406 36962 ft 547 kts 103°
2026-05-05 16:35 24.37195 104.53520 36945 ft 547 kts 103°
2026-05-05 16:35 24.35427 104.61637 36941 ft 547 kts 103°
2026-05-05 16:36 24.33653 104.69761 36935 ft 548 kts 103°
2026-05-05 16:36 24.31875 104.77881 36925 ft 548 kts 103°
2026-05-05 16:37 24.30091 104.86009 36917 ft 549 kts 103°
2026-05-05 16:37 24.28300 104.94144 36884 ft 548 kts 103°
2026-05-05 16:38 24.26530 105.02176 36892 ft 537 kts 103°
2026-05-05 16:38 24.24784 105.10058 36907 ft 536 kts 103°
2026-05-05 16:39 24.23021 105.18005 36895 ft 537 kts 103°
2026-05-05 16:39 24.21219 105.25947 36904 ft 538 kts 104°
2026-05-05 16:40 24.19291 105.33859 36906 ft 538 kts 104°
2026-05-05 16:40 24.17343 105.41786 36908 ft 539 kts 104°
2026-05-05 16:41 24.15412 105.49721 36901 ft 539 kts 104°
2026-05-05 16:41 24.13486 105.57650 36900 ft 539 kts 104°
2026-05-05 16:42 24.11552 105.65586 36900 ft 539 kts 104°
2026-05-05 16:42 24.09651 105.73527 36897 ft 539 kts 103°
2026-05-05 16:43 24.08058 105.81541 36898 ft 538 kts 101°
2026-05-05 16:43 24.06541 105.89576 36891 ft 539 kts 101°
2026-05-05 16:44 24.04974 105.97587 36893 ft 538 kts 101°
2026-05-05 16:44 24.03368 106.05591 36890 ft 539 kts 102°
2026-05-05 16:45 24.01755 106.13589 36887 ft 539 kts 102°
2026-05-05 16:45 24.00140 106.21592 36889 ft 539 kts 102°
2026-05-05 16:46 23.98525 106.29589 36891 ft 539 kts 102°
2026-05-05 16:46 23.96903 106.37596 36878 ft 539 kts 102°
2026-05-05 16:47 23.96094 106.41582 36745 ft 536 kts 102°
2026-05-05 16:47 23.95284 106.45568 36459 ft 536 kts 102°
2026-05-05 16:47 23.94475 106.49544 36131 ft 538 kts 102°
2026-05-05 16:47 23.93660 106.53544 35785 ft 539 kts 102°
2026-05-05 16:48 23.92846 106.57537 35469 ft 539 kts 102°
2026-05-05 16:48 23.92171 106.61574 35136 ft 539 kts 97°
2026-05-05 16:48 23.91827 106.65645 35016 ft 537 kts 93°
2026-05-05 16:48 23.91582 106.69717 35011 ft 538 kts 92°
2026-05-05 16:49 23.91115 106.77884 35002 ft 540 kts 93°
2026-05-05 16:49 23.90608 106.86026 35013 ft 540 kts 93°
2026-05-05 16:50 23.90059 106.94266 34997 ft 541 kts 94°
2026-05-05 16:50 23.89502 107.02462 35007 ft 540 kts 94°
2026-05-05 16:51 23.88944 107.10647 35005 ft 540 kts 94°
2026-05-05 16:51 23.88389 107.18771 35029 ft 539 kts 94°
2026-05-05 16:52 23.87827 107.26937 35008 ft 539 kts 94°
2026-05-05 16:52 23.87259 107.35104 35023 ft 539 kts 94°
2026-05-05 16:53 23.86688 107.43258 35029 ft 538 kts 94°
2026-05-05 16:53 23.86113 107.51423 35023 ft 538 kts 94°
2026-05-05 16:54 23.85534 107.59572 35023 ft 538 kts 94°
2026-05-05 16:54 23.84950 107.67733 35017 ft 538 kts 94°
2026-05-05 16:55 23.84363 107.75873 35026 ft 538 kts 94°
2026-05-05 16:55 23.83772 107.84014 35024 ft 537 kts 94°
2026-05-05 16:56 23.83286 107.92151 35024 ft 537 kts 92°
2026-05-05 16:56 23.82911 108.00288 35031 ft 536 kts 92°
2026-05-05 16:57 23.82509 108.08411 35031 ft 535 kts 92°
2026-05-05 16:57 23.82087 108.16471 35022 ft 535 kts 92°
2026-05-05 16:58 23.81639 108.24586 35040 ft 535 kts 93°
2026-05-05 16:58 23.81174 108.32706 35023 ft 536 kts 93°
2026-05-05 16:59 23.80708 108.40820 35034 ft 536 kts 93°
2026-05-05 16:59 23.80240 108.49000 35042 ft 548 kts 92°
2026-05-05 17:00 23.79754 108.57426 35048 ft 563 kts 92°
2026-05-05 17:00 23.79246 108.66053 35044 ft 574 kts 93°
2026-05-05 17:01 23.78728 108.74755 35038 ft 574 kts 92°
2026-05-05 17:01 23.78207 108.83461 35026 ft 574 kts 93°
2026-05-05 17:02 23.77688 108.92139 35028 ft 571 kts 93°
2026-05-05 17:02 23.77161 109.00750 35013 ft 570 kts 93°
2026-05-05 17:03 23.76628 109.09395 35023 ft 569 kts 93°
2026-05-05 17:03 23.75766 109.17968 35024 ft 568 kts 101°
2026-05-05 17:04 23.74045 109.26372 35026 ft 568 kts 103°
2026-05-05 17:04 23.72263 109.34776 35031 ft 568 kts 103°
2026-05-05 17:05 23.70545 109.43195 35013 ft 569 kts 103°
2026-05-05 17:05 23.68846 109.51629 35022 ft 569 kts 103°
2026-05-05 17:06 23.67135 109.60060 35025 ft 570 kts 103°
2026-05-05 17:06 23.65407 109.68498 35028 ft 570 kts 103°
2026-05-05 17:07 23.63668 109.76924 35039 ft 569 kts 103°
2026-05-05 17:07 23.61927 109.85345 35040 ft 569 kts 103°
2026-05-05 17:08 23.60477 109.92344 35037 ft 569 kts 103°
2026-05-05 17:08 23.58733 110.00752 35038 ft 569 kts 103°
2026-05-05 17:09 23.56982 110.09165 35036 ft 569 kts 103°
2026-05-05 17:09 23.55230 110.17556 35036 ft 568 kts 103°
2026-05-05 17:10 23.53475 110.25940 35042 ft 568 kts 103°
2026-05-05 17:10 23.51714 110.34329 35041 ft 567 kts 103°
2026-05-05 17:11 23.49978 110.42710 35038 ft 567 kts 103°
2026-05-05 17:11 23.48297 110.51038 35037 ft 567 kts 103°
2026-05-05 17:12 23.46597 110.59416 35044 ft 566 kts 103°
2026-05-05 17:12 23.44884 110.67789 35038 ft 566 kts 103°
2026-05-05 17:13 23.43155 110.76164 35039 ft 566 kts 103°
2026-05-05 17:13 23.41383 110.84511 35044 ft 566 kts 104°
2026-05-05 17:14 23.39601 110.92857 35046 ft 566 kts 104°
2026-05-05 17:14 23.37823 111.01203 35050 ft 566 kts 104°
2026-05-05 17:15 23.36045 111.09547 35052 ft 566 kts 104°
2026-05-05 17:15 23.34273 111.17879 35046 ft 566 kts 103°
2026-05-05 17:16 23.32582 111.26241 35054 ft 565 kts 103°
2026-05-05 17:16 23.30910 111.34591 35054 ft 565 kts 103°
2026-05-05 17:17 23.29214 111.42941 35059 ft 565 kts 103°
2026-05-05 17:17 23.27510 111.51283 35057 ft 565 kts 103°
2026-05-05 17:18 23.25779 111.59563 35067 ft 565 kts 104°
2026-05-05 17:18 23.23983 111.67883 35065 ft 565 kts 104°
2026-05-05 17:19 23.22193 111.76203 35072 ft 565 kts 104°
2026-05-05 17:19 23.20414 111.84503 35060 ft 557 kts 103°
2026-05-05 17:20 23.18721 111.92636 35067 ft 550 kts 102°
2026-05-05 17:20 23.17052 112.00735 35078 ft 550 kts 102°
2026-05-05 17:21 23.15364 112.08870 35077 ft 552 kts 102°
2026-05-05 17:22 23.12808 112.21093 35089 ft 554 kts 102°
2026-05-05 17:22 23.11092 112.29273 35086 ft 556 kts 102°
2026-05-05 17:23 23.09368 112.37473 35085 ft 558 kts 102°
2026-05-05 17:23 23.07638 112.45687 35078 ft 558 kts 102°
2026-05-05 17:24 23.06525 112.53843 35081 ft 558 kts 93°
2026-05-05 17:24 23.06220 112.58845 35083 ft 558 kts 92°
2026-05-05 17:26 23.05979 112.63171 35075 ft 558 kts 92°
2026-05-05 17:26 23.05474 112.71590 35081 ft 559 kts 93°
2026-05-05 17:27 23.04910 112.80003 35073 ft 559 kts 93°
2026-05-05 17:27 23.04327 112.88428 35074 ft 560 kts 93°
2026-05-05 17:28 23.03746 112.96830 35058 ft 551 kts 93°
2026-05-05 17:28 23.03463 113.00914 35057 ft 533 kts 93°
2026-05-05 17:28 23.03189 113.04862 35050 ft 518 kts 93°
2026-05-05 17:28 23.02919 113.08743 34744 ft 514 kts 93°
2026-05-05 17:29 23.02319 113.12543 34279 ft 509 kts 109°
2026-05-05 17:29 23.00806 113.15963 33864 ft 500 kts 127°
2026-05-05 17:29 22.98582 113.18733 33403 ft 490 kts 142°
2026-05-05 17:29 22.95900 113.20947 32915 ft 480 kts 154°
2026-05-05 17:30 22.92912 113.22427 32438 ft 464 kts 167°
2026-05-05 17:30 22.89848 113.23439 32025 ft 459 kts 168°
2026-05-05 17:30 22.86786 113.24432 31580 ft 457 kts 168°
2026-05-05 17:30 22.83755 113.25432 31146 ft 455 kts 167°
2026-05-05 17:31 22.80743 113.26449 30716 ft 453 kts 167°
2026-05-05 17:31 22.77744 113.27478 30281 ft 451 kts 166°
2026-05-05 17:31 22.74759 113.28512 29794 ft 450 kts 166°
2026-05-05 17:31 22.71783 113.29547 29308 ft 447 kts 166°
2026-05-05 17:32 22.68835 113.30571 28848 ft 444 kts 166°
2026-05-05 17:32 22.65901 113.31589 28397 ft 441 kts 166°
2026-05-05 17:32 22.62986 113.32598 27962 ft 438 kts 166°
2026-05-05 17:32 22.60094 113.33605 27532 ft 435 kts 166°
2026-05-05 17:33 22.57223 113.34618 27105 ft 432 kts 165°
2026-05-05 17:33 22.54374 113.35627 26679 ft 430 kts 165°
2026-05-05 17:33 22.51539 113.36633 26255 ft 427 kts 165°
2026-05-05 17:33 22.48723 113.37630 25840 ft 425 kts 166°
2026-05-05 17:34 22.45921 113.38621 25422 ft 423 kts 166°
2026-05-05 17:34 22.43123 113.39608 24994 ft 421 kts 166°
2026-05-05 17:34 22.40342 113.40590 24573 ft 420 kts 166°
2026-05-05 17:34 22.37571 113.41567 24163 ft 418 kts 166°
2026-05-05 17:35 22.34809 113.42541 23735 ft 417 kts 166°
2026-05-05 17:35 22.32053 113.43511 23283 ft 416 kts 166°
2026-05-05 17:35 22.29349 113.44463 22829 ft 414 kts 166°
2026-05-05 17:35 22.26619 113.45424 22401 ft 411 kts 166°
2026-05-05 17:36 22.23918 113.46375 21982 ft 407 kts 166°
2026-05-05 17:36 22.21234 113.47319 21578 ft 404 kts 165°
2026-05-05 17:36 22.18566 113.48257 21168 ft 401 kts 165°
2026-05-05 17:36 22.15919 113.49187 20755 ft 399 kts 165°
2026-05-05 17:37 22.13290 113.50111 20354 ft 396 kts 165°
2026-05-05 17:37 22.11559 113.50719 20083 ft 394 kts 165°
2026-05-05 17:37 22.08088 113.51937 19530 ft 390 kts 165°
2026-05-05 17:37 22.05516 113.52839 19140 ft 387 kts 165°
2026-05-05 17:38 22.02957 113.53737 18718 ft 386 kts 165°
2026-05-05 17:38 22.00416 113.54628 18311 ft 384 kts 165°
2026-05-05 17:38 21.97888 113.55533 17850 ft 382 kts 163°
2026-05-05 17:38 21.95427 113.56592 17422 ft 379 kts 160°
2026-05-05 17:39 21.93020 113.57729 17021 ft 376 kts 159°
2026-05-05 17:39 21.90644 113.58869 16620 ft 372 kts 159°
2026-05-05 17:39 21.88285 113.59988 16231 ft 368 kts 159°
2026-05-05 17:39 21.85946 113.61084 15848 ft 365 kts 160°
2026-05-05 17:40 21.83627 113.62159 15462 ft 361 kts 160°
2026-05-05 17:40 21.81332 113.63218 15086 ft 358 kts 160°
2026-05-05 17:40 21.79055 113.64267 14717 ft 354 kts 160°
2026-05-05 17:40 21.76800 113.65304 14356 ft 350 kts 160°
2026-05-05 17:41 21.74568 113.66331 14003 ft 347 kts 160°
2026-05-05 17:41 21.72493 113.67578 13618 ft 344 kts 142°
2026-05-05 17:41 21.71000 113.69588 13236 ft 346 kts 118°
2026-05-05 17:41 21.70323 113.72056 12862 ft 346 kts 95°
2026-05-05 17:42 21.70532 113.74615 12496 ft 346 kts 72°
2026-05-05 17:42 21.71548 113.76940 12128 ft 343 kts 52°
2026-05-05 17:42 21.73181 113.78767 11792 ft 336 kts 39°
2026-05-05 17:42 21.74929 113.80420 11430 ft 335 kts 39°
2026-05-05 17:43 21.76708 113.82010 11094 ft 326 kts 29°
2026-05-05 17:43 21.78749 113.82776 10706 ft 302 kts 358°
2026-05-05 17:43 21.80730 113.82499 10285 ft 285 kts 342°
2026-05-05 17:43 21.82646 113.82027 9794 ft 280 kts 343°
2026-05-05 17:44 21.84538 113.81572 9175 ft 278 kts 344°
2026-05-05 17:44 21.86416 113.81120 8793 ft 275 kts 344°
2026-05-05 17:44 21.88287 113.80667 8481 ft 277 kts 344°
2026-05-05 17:44 21.90171 113.80210 8182 ft 278 kts 344°
2026-05-05 17:45 21.92052 113.79754 7873 ft 275 kts 344°
2026-05-05 17:45 21.93910 113.79304 7558 ft 273 kts 344°
2026-05-05 17:45 21.95761 113.78856 7284 ft 274 kts 345°
2026-05-05 17:45 21.97627 113.78403 7001 ft 276 kts 345°
2026-05-05 17:46 21.99500 113.77950 6706 ft 275 kts 345°
2026-05-05 17:46 22.01352 113.77502 6430 ft 270 kts 346°
2026-05-05 17:46 22.03163 113.77064 6232 ft 262 kts 345°
2026-05-05 17:46 22.04920 113.76639 5957 ft 257 kts 346°
2026-05-05 17:47 22.06639 113.76225 5553 ft 251 kts 345°
2026-05-05 17:47 22.08362 113.75807 5132 ft 254 kts 346°
2026-05-05 17:47 22.10061 113.75395 4913 ft 245 kts 346°
2026-05-05 17:47 22.11689 113.75002 4707 ft 237 kts 346°
2026-05-05 17:48 22.13283 113.74615 4446 ft 234 kts 346°
2026-05-05 17:48 22.14872 113.74228 4191 ft 235 kts 347°
2026-05-05 17:48 22.16466 113.73840 3930 ft 235 kts 347°
2026-05-05 17:48 22.18042 113.73457 3691 ft 230 kts 347°
2026-05-05 17:49 22.19575 113.73194 3464 ft 217 kts
2026-05-05 17:49 22.20944 113.73682 3221 ft 200 kts 31°
2026-05-05 17:49 22.22164 113.74385 3009 ft 199 kts 30°
2026-05-05 17:49 22.23378 113.75074 2789 ft 195 kts 31°
2026-05-05 17:50 22.24533 113.75783 2538 ft 186 kts 43°
2026-05-05 17:50 22.25204 113.76866 2353 ft 167 kts 69°
2026-05-05 17:50 22.25694 113.77986 2175 ft 163 kts 67°
2026-05-05 17:50 22.26148 113.79088 2032 ft 157 kts 71°
2026-05-05 17:51 22.26518 113.80160 1845 ft 146 kts 73°
2026-05-05 17:51 22.26848 113.81171 1709 ft 141 kts 74°
2026-05-05 17:51 22.27168 113.82169 1517 ft 140 kts 72°
2026-05-05 17:51 22.27491 113.83168 1315 ft 141 kts 73°
2026-05-05 17:52 22.27808 113.84156 1145 ft 136 kts 72°
2026-05-05 17:52 22.28116 113.85125 989 ft 139 kts 71°
2026-05-05 17:52 22.28440 113.86125 800 ft 141 kts 72°
2026-05-05 17:52 22.28753 113.87098 632 ft 137 kts 73°
2026-05-05 17:53 22.29064 113.88066 408 ft 136 kts 71°
2026-05-05 17:53 22.29372 113.89017 298 ft 139 kts 73°
2026-05-05 17:53 22.29689 113.90000 96 ft 139 kts 73°
2026-05-05 17:53 22.29982 113.90910 42 ft 115 kts 71°
2026-05-05 17:54 22.30197 113.91578 42 ft 72 kts 71°
2026-05-05 17:54 22.30314 113.91944 42 ft 36 kts 71°
2026-05-05 17:54 22.30369 113.92144 43 ft 21 kts 81°
2026-05-05 17:54 22.30367 113.92272 43 ft 14 kts 98°
2026-05-05 17:55 22.30354 113.92356 42 ft 9 kts 99°
2026-05-05 17:55 22.30352 113.92371 42 ft 0 kts 100°
2026-05-05 17:55 22.30350 113.92378 42 ft 2 kts 101°
2026-05-05 17:56 22.30345 113.92392 42 ft 4 kts 115°
2026-05-05 17:56 22.30321 113.92408 41 ft 5 kts 172°
2026-05-05 17:56 22.30289 113.92392 41 ft 6 kts 222°
2026-05-05 17:56 22.30260 113.92338 41 ft 10 kts 248°
2026-05-05 17:57 22.30219 113.92216 41 ft 15 kts 250°
2026-05-05 17:57 22.30195 113.92142 41 ft 15 kts 251°
2026-05-05 17:57 22.30169 113.92064 41 ft 8 kts 247°
2026-05-05 17:57 22.30123 113.92035 40 ft 8 kts 178°
2026-05-05 17:58 22.30066 113.92053 41 ft 9 kts 160°
2026-05-05 17:58 22.30007 113.92075 41 ft 9 kts 162°
2026-05-05 17:58 22.29947 113.92095 41 ft 7 kts 161°
2026-05-05 17:58 22.29905 113.92111 41 ft 6 kts 161°
2026-05-05 17:59 22.29881 113.92120 41 ft 2 kts 161°
2026-05-05 17:59 22.29871 113.92124 41 ft 1 kts 161°
2026-05-05 17:59 22.29866 113.92126 41 ft 0 kts 160°